Satellite: NOAA-14 Catalog number: 23455 Epoch time: 10112.44486789 Element set: 29 Inclination: 098.8786 deg RA of node: 193.5713 deg Eccentricity: 0.0010034 Arg of perigee: 038.2196 deg Mean anomaly: 321.9682 deg Mean motion: 14.13784227 rev/day Decay rate: 2.9e-07 rev/day^2 Epoch rev: 78962 Checksum: 326
Satellite: NOAA-15 Catalog number: 25338 Epoch time: 10112.18552472 Element set: 349 Inclination: 098.6166 deg RA of node: 100.1255 deg Eccentricity: 0.0009743 Arg of perigee: 235.1354 deg Mean anomaly: 124.8894 deg Mean motion: 14.24819428 rev/day Decay rate: 7.5e-07 rev/day^2 Epoch rev: 62077 Checksum: 302
Satellite: RESURS Catalog number: 25394 Epoch time: 10112.63564032 Element set: 484 Inclination: 098.3086 deg RA of node: 133.7314 deg Eccentricity: 0.0002212 Arg of perigee: 047.3177 deg Mean anomaly: 312.8183 deg Mean motion: 14.24198885 rev/day Decay rate: -1.1e-07 rev/day^2 Epoch rev: 61244 Checksum: 271
Satellite: FENGYUN1 Catalog number: 25730 Epoch time: 10111.89068518 Element set: 24 Inclination: 098.7843 deg RA of node: 078.3143 deg Eccentricity: 0.0024952 Arg of perigee: 066.1291 deg Mean anomaly: 294.2516 deg Mean motion: 14.08222223 rev/day Decay rate: 2.51e-06 rev/day^2 Epoch rev: 56376 Checksum: 284
Satellite: OKEAN-0 Catalog number: 25860 Epoch time: 10112.39832843 Element set: 972 Inclination: 097.8280 deg RA of node: 087.0086 deg Eccentricity: 0.0000577 Arg of perigee: 072.0044 deg Mean anomaly: 288.1235 deg Mean motion: 14.73632603 rev/day Decay rate: 5.7e-07 rev/day^2 Epoch rev: 57868 Checksum: 304
Satellite: NOAA-16 Catalog number: 26536 Epoch time: 10112.26861727 Element set: 826 Inclination: 099.1730 deg RA of node: 128.4138 deg Eccentricity: 0.0011281 Arg of perigee: 131.3885 deg Mean anomaly: 228.8267 deg Mean motion: 14.12553195 rev/day Decay rate: -2.22e-06 rev/day^2 Epoch rev: 49393 Checksum: 303
Satellite: NOAA-17 Catalog number: 27453 Epoch time: 10112.35264654 Element set: 830 Inclination: 098.4358 deg RA of node: 165.0300 deg Eccentricity: 0.0010838 Arg of perigee: 303.2246 deg Mean anomaly: 056.7893 deg Mean motion: 14.24150187 rev/day Decay rate: -2.8e-07 rev/day^2 Epoch rev: 40675 Checksum: 287
Satellite: NOAA-18 Catalog number: 28654 Epoch time: 10112.43646172 Element set: 314 Inclination: 098.9468 deg RA of node: 058.8732 deg Eccentricity: 0.0013765 Arg of perigee: 207.7581 deg Mean anomaly: 152.2858 deg Mean motion: 14.11346989 rev/day Decay rate: -1.76e-06 rev/day^2 Epoch rev: 25357 Checksum: 333
Satellite: NOAA-19 Catalog number: 33591 Epoch time: 10112.41240394 Element set: 513 Inclination: 098.7849 deg RA of node: 055.7284 deg Eccentricity: 0.0015159 Arg of perigee: 087.2933 deg Mean anomaly: 272.9975 deg Mean motion: 14.11043816 rev/day Decay rate: 6.0e-08 rev/day^2 Epoch rev: 6204 Checksum: 301
/EX SB KEPS @ AMSAT $ORB10112.M Orbital Elements 10112.MISC
HR AMSAT ORBITAL ELEMENTS FOR MANNED AND MISCELLANEOUS SATELLITES FROM WA5QGD FORT WORTH,TX April 22, 2010 Send Subscribe/unsubscribe to KEPS at http://www.amsat.org/mailman/listinfo/keps BID: ORB10112.M TO ALL RADIO AMATEURS BT
Satellite: HUBBLE Catalog number: 20580 Epoch time: 10110.59790984 Element set: 553 Inclination: 028.4707 deg RA of node: 255.8109 deg Eccentricity: 0.0003219 Arg of perigee: 312.8116 deg Mean anomaly: 047.2138 deg Mean motion: 15.00954638 rev/day Decay rate: 5.46e-06 rev/day^2 Epoch rev: 89609 Checksum: 299
Satellite: ISS Catalog number: 25544 Epoch time: 10113.00621263 Element set: 25 Inclination: 051.6471 deg RA of node: 153.7726 deg Eccentricity: 0.0003214 Arg of perigee: 195.6601 deg Mean anomaly: 237.1721 deg Mean motion: 15.75128884 rev/day Decay rate: 2.5402e-04 rev/day^2 Epoch rev: 65478 Checksum: 268
Satellite: CO-58 Catalog number: 28895 Epoch time: 10112.67044317 Element set: 564 Inclination: 098.0238 deg RA of node: 358.9648 deg Eccentricity: 0.0019423 Arg of perigee: 100.2381 deg Mean anomaly: 260.1026 deg Mean motion: 14.59878004 rev/day Decay rate: 8.3e-07 rev/day^2 Epoch rev: 23888 Checksum: 318
Satellite: FALCON Catalog number: 30776 Epoch time: 10112.10783684 Element set: 811 Inclination: 035.4339 deg RA of node: 024.7464 deg Eccentricity: 0.0000726 Arg of perigee: 358.5805 deg Mean anomaly: 001.4909 deg Mean motion: 15.03606723 rev/day Decay rate: 8.63e-06 rev/day^2 Epoch rev: 17161 Checksum: 276
Satellite: MAST Catalog number: 31126 Epoch time: 10112.67124242 Element set: 847 Inclination: 097.9424 deg RA of node: 157.5380 deg Eccentricity: 0.0095717 Arg of perigee: 039.1867 deg Mean anomaly: 321.6197 deg Mean motion: 14.53577249 rev/day Decay rate: 8.7e-07 rev/day^2 Epoch rev: 15999 Checksum: 326
Satellite: CAPE1 Catalog number: 31130 Epoch time: 10112.04898588 Element set: 867 Inclination: 097.9454 deg RA of node: 154.4706 deg Eccentricity: 0.0104122 Arg of perigee: 048.6935 deg Mean anomaly: 312.3137 deg Mean motion: 14.52166297 rev/day Decay rate: 4.02e-06 rev/day^2 Epoch rev: 15951 Checksum: 294
Satellite: COMPASS Catalog number: 32787 Epoch time: 10111.71887753 Element set: 651 Inclination: 097.8978 deg RA of node: 177.2419 deg Eccentricity: 0.0016996 Arg of perigee: 107.7577 deg Mean anomaly: 252.5501 deg Mean motion: 14.81833471 rev/day Decay rate: 1.34e-06 rev/day^2 Epoch rev: 10713 Checksum: 322
Satellite: AAUSAT2 Catalog number: 32788 Epoch time: 10112.13245443 Element set: 645 Inclination: 097.8991 deg RA of node: 177.7652 deg Eccentricity: 0.0016769 Arg of perigee: 107.0888 deg Mean anomaly: 253.2213 deg Mean motion: 14.81973506 rev/day Decay rate: 1.43e-06 rev/day^2 Epoch rev: 10720 Checksum: 304
Satellite: DO-64 Catalog number: 32789 Epoch time: 10112.68638221 Element set: 662 Inclination: 097.9041 deg RA of node: 178.7245 deg Eccentricity: 0.0016777 Arg of perigee: 104.5495 deg Mean anomaly: 255.7583 deg Mean motion: 14.82090192 rev/day Decay rate: 1.052e-05 rev/day^2 Epoch rev: 10728 Checksum: 320
Satellite: CO-66 Catalog number: 32791 Epoch time: 10112.67820081 Element set: 643 Inclination: 097.8987 deg RA of node: 178.2097 deg Eccentricity: 0.0017214 Arg of perigee: 102.8555 deg Mean anomaly: 257.4579 deg Mean motion: 14.81629076 rev/day Decay rate: 5.82e-06 rev/day^2 Epoch rev: 10723 Checksum: 328
Satellite: RS-30 Catalog number: 32953 Epoch time: 10112.83303179 Element set: 625 Inclination: 082.5005 deg RA of node: 064.0950 deg Eccentricity: 0.0017419 Arg of perigee: 221.1712 deg Mean anomaly: 138.8054 deg Mean motion: 12.43004828 rev/day Decay rate: 1.0e-07 rev/day^2 Epoch rev: 8686 Checksum: 260
Satellite: TACSAT-3 Catalog number: 35001 Epoch time: 10112.65769904 Element set: 269 Inclination: 040.4552 deg RA of node: 187.5540 deg Eccentricity: 0.0022851 Arg of perigee: 308.7877 deg Mean anomaly: 051.0898 deg Mean motion: 15.41271120 rev/day Decay rate: 5.192e-05 rev/day^2 Epoch rev: 5206 Checksum: 282
Satellite: PHARMSAT Catalog number: 35002 Epoch time: 10111.59492430 Element set: 254 Inclination: 040.4711 deg RA of node: 192.1447 deg Eccentricity: 0.0025842 Arg of perigee: 304.7765 deg Mean anomaly: 055.0620 deg Mean motion: 15.41834883 rev/day Decay rate: 4.353e-05 rev/day^2 Epoch rev: 5191 Checksum: 261
Satellite: HAWKSAT1 Catalog number: 35003 Epoch time: 10112.57869348 Element set: 271 Inclination: 040.4631 deg RA of node: 182.5396 deg Eccentricity: 0.0023337 Arg of perigee: 322.5446 deg Mean anomaly: 037.3745 deg Mean motion: 15.44410147 rev/day Decay rate: 9.347e-05 rev/day^2 Epoch rev: 5211 Checksum: 273
Satellite: CP6 Catalog number: 35004 Epoch time: 10111.56829325 Element set: 263 Inclination: 040.4645 deg RA of node: 188.0846 deg Eccentricity: 0.0022253 Arg of perigee: 315.1825 deg Mean anomaly: 044.7195 deg Mean motion: 15.45025355 rev/day Decay rate: 1.0436e-04 rev/day^2 Epoch rev: 5195 Checksum: 276
Satellite: AEROCUB3 Catalog number: 35005 Epoch time: 10112.54763207 Element set: 287 Inclination: 040.4709 deg RA of node: 181.7570 deg Eccentricity: 0.0019204 Arg of perigee: 329.2488 deg Mean anomaly: 030.7203 deg Mean motion: 15.48024893 rev/day Decay rate: 2.8030e-04 rev/day^2 Epoch rev: 5211 Checksum: 265
Satellite: DRAGNSAT Catalog number: 35690 Epoch time: 10076.22711312 Element set: 316 Inclination: 051.6170 deg RA of node: 315.4586 deg Eccentricity: 0.0004999 Arg of perigee: 310.9891 deg Mean anomaly: 057.3269 deg Mean motion: 16.42150010 rev/day Decay rate: 5.715194e-02 rev/day^2 Epoch rev: 3656 Checksum: 289
Satellite: POLLUX Catalog number: 35693 Epoch time: 10087.99866888 Element set: 352 Inclination: 051.6099 deg RA of node: 254.5746 deg Eccentricity: 0.0006270 Arg of perigee: 294.4866 deg Mean anomaly: 097.5899 deg Mean motion: 16.52338462 rev/day Decay rate: 2.3496735e-01 rev/day^2 Epoch rev: 3839 Checksum: 384
Satellite: CASTOR Catalog number: 35694 Epoch time: 10112.87947127 Element set: 306 Inclination: 051.6356 deg RA of node: 134.5764 deg Eccentricity: 0.0005489 Arg of perigee: 012.1850 deg Mean anomaly: 347.9292 deg Mean motion: 15.94517130 rev/day Decay rate: 6.4044e-04 rev/day^2 Epoch rev: 4221 Checksum: 291
Satellite: METEOR-M Catalog number: 35865 Epoch time: 10112.75177392 Element set: 230 Inclination: 098.7633 deg RA of node: 166.9326 deg Eccentricity: 0.0002351 Arg of perigee: 142.3756 deg Mean anomaly: 217.7553 deg Mean motion: 14.21829731 rev/day Decay rate: 1.76e-06 rev/day^2 Epoch rev: 3084 Checksum: 293
Satellite: RS-38 Catalog number: 35869 Epoch time: 10112.72918156 Element set: 236 Inclination: 098.7616 deg RA of node: 166.9378 deg Eccentricity: 0.0004825 Arg of perigee: 154.8256 deg Mean anomaly: 205.3127 deg Mean motion: 14.21979904 rev/day Decay rate: 1.77e-06 rev/day^2 Epoch rev: 3084 Checksum: 330
/EX
participants (1)
-
Ray Hoad